Station WAHV2 - 8631044 - Wachapreague, VA Image indicating link to RSS feed of recent meteorological observations for station WAHV2


Conditions at WAHV2 as of
(4:48 pm EDT)
2048 GMT on 08/31/2026:
     

Click on the graph icon in the table below to see a time series plot of the last five days of that observation.

5-day plot - Wind Direction Wind Direction (WDIR): S ( 190 deg true )
5-day plot - Wind Speed Wind Speed (WSPD): 8.9 kts
5-day plot - Wind Gust Wind Gust (GST): 11.1 kts
5-day plot - Atmospheric Pressure Atmospheric Pressure (PRES):30.06 in
5-day plot - Air Temperature Air Temperature (ATMP): 83.3 °F
5-day plot - Water Temperature Water Temperature (WTMP): 86.4 °F
5-day plot - Wind Speed at 10 Meters Wind Speed at 10 meters (WSPD10M): 9.7 kts
5-day plot - Wind Speed at 20 Meters Wind Speed at 20 meters (WSPD20M): 9.7 kts
5-day plot -  Wind Speed, Wind Gust and Atmospheric Pressure Combined plot of Wind Speed, Gust, and Air Pressure
NOS Water Level Observation Network Water Level
Previous observations
TIME
(EDT)
5-day plot - Wind Direction
WDIR
 
5-day plot - Wind Speed
WSPD
kts
5-day plot - Wind Gust
GST
kts
5-day plot - Wave Height
WVHT
ft
5-day plot - Dominant Wave Period
DPD
sec
5-day plot - Average Wave Period
APD
sec
5-day plot - Mean Wave Direction
MWD
 
5-day plot - Atmospheric Pressure
PRES
in
5-day plot - Pressure Tendency
PTDY
in
5-day plot - Air Temperature
ATMP
°F
5-day plot - Water Temperature
WTMP
°F
5-day plot - Dew Point
DEWP
°F
5-day plot - Salinity
SAL
psu
5-day plot - Visibility
VIS
nmi
5-day plot - Tide (above MLLW)
TIDE
ft
2026-08-31 04:42 pmSSW 8.0 12.0----30.06- 83.7 86.4----
2026-08-31 04:36 pmSSW 8.9 11.1----30.06- 83.7 86.4----
2026-08-31 04:30 pm S 8.0 11.1----30.06- 83.7 86.4----
2026-08-31 04:24 pm S 8.0 12.0----30.06- 83.7 86.4----
2026-08-31 04:18 pm S 9.9 12.0----30.06-- 86.2----
2026-08-31 04:12 pm S 8.0 11.1----30.06-- 86.2----
2026-08-31 04:06 pm S 8.0 12.0----30.06-- 86.2----
2026-08-31 04:00 pm S 8.9 11.1----30.06-0.03 83.8 86.2----
2026-08-31 03:54 pmSSW 8.0 11.1----30.06- 84.0 86.2----
2026-08-31 03:42 pm S 7.0 11.1----30.06- 83.8 85.8----
2026-08-31 03:36 pm S 8.0 11.1----30.06- 83.5 85.5----
2026-08-31 03:30 pm S 8.0 9.9----30.07- 83.1 85.5----
2026-08-31 03:24 pm S 7.0 9.9----30.07- 83.3 85.3----
2026-08-31 03:18 pm S 7.0 8.9----30.07-- 85.1----
2026-08-31 03:12 pmSSE 7.0 9.9----30.08-- 85.1----
2026-08-31 03:06 pm S 6.0 9.9----30.08-- 84.9----
2026-08-31 03:00 pm S 6.0 11.1----30.08-0.01 83.1 84.9----
2026-08-31 02:54 pm S 7.0 9.9----30.08- 82.9 84.6----
2026-08-31 02:48 pm S 7.0 8.9----30.08- 82.8 84.6----
2026-08-31 02:42 pm S 5.1 8.9----30.08- 83.1 84.4----
2026-08-31 02:36 pm S 6.0 8.9----30.08- 83.3 84.4----
2026-08-31 02:30 pm S 6.0 8.0----30.08- 83.7 84.4----
2026-08-31 02:24 pm S 6.0 7.0----30.09- 84.0 84.4----
2026-08-31 02:18 pm S 5.1 8.0----30.08-- 84.2----
2026-08-31 02:12 pm S 5.1 6.0----30.08-- 84.0----
2026-08-31 02:06 pm S 5.1 8.0----30.08-- 84.0----
2026-08-31 02:00 pm S 6.0 13.0----30.08-0.03 83.8 83.8----
2026-08-31 01:54 pmESE 6.0 8.9----30.08- 84.0 83.7----
2026-08-31 01:48 pmESE 5.1 7.0----30.08-- 83.7----
2026-08-31 01:42 pmESE 7.0 8.0----30.08-- 83.5----
2026-08-31 01:36 pmESE 4.1 6.0----30.08-- 83.3----
2026-08-31 01:30 pmESE 4.1 5.1----30.08- 84.2 83.3----
2026-08-31 01:24 pmESE 4.1 7.0----30.09- 83.8 83.1----
2026-08-31 01:18 pmSSE 2.9 5.1----30.09-- 82.6----
2026-08-31 01:12 pmSSE 2.9 6.0----30.09-- 82.6----
2026-08-31 01:06 pmSSE 4.1 6.0----30.09-- 82.2----
2026-08-31 01:00 pm S 5.1 6.0----30.09-0.01 83.8 82.0----
2026-08-31 12:54 pm S 5.1 6.0----30.09- 83.7 82.0----
2026-08-31 12:48 pm S 5.1 6.0----30.09- 83.5 81.9----
2026-08-31 12:42 pm SE 4.1 6.0----30.09- 83.8 82.2----
2026-08-31 12:36 pmSSE 4.1 6.0----30.09- 83.8 82.0----
2026-08-31 12:30 pmSSE 5.1 6.0----30.09- 83.5 81.7----
2026-08-31 12:24 pm SE 4.1 7.0----30.09- 83.5 81.7----
2026-08-31 12:18 pmSSE 5.1 7.0----30.09-- 81.5----
2026-08-31 12:12 pmSSE 5.1 6.0----30.09-- 81.5----
2026-08-31 12:06 pm SE 4.1 5.1----30.09-- 81.5----
2026-08-31 12:00 pm SE 5.1 6.0----30.09-0.01 83.3 81.5----
2026-08-31 11:54 amSSE 5.1 6.0----30.09- 83.3 81.5----
2026-08-31 11:48 am SE 1.9 8.0----30.09- 84.9 81.5----
2026-08-31 11:42 amSSW 1.9 4.1----30.09- 84.9 81.5----
2026-08-31 11:36 amSSE 1.9 2.9----30.10- 85.5 81.5----
2026-08-31 11:30 amWSW 1.9 4.1----30.10- 87.4 81.3----
2026-08-31 11:24 am SE 1.0 2.9----30.10- 85.5 81.3----
2026-08-31 11:18 amSSE 1.0 2.9----30.10-- 81.3----
2026-08-31 11:12 am- 0.0 1.9----30.11-- 81.3----
2026-08-31 11:06 amWNW 1.0 4.1----30.11-- 81.3----
2026-08-31 11:00 am W 1.0 2.9----30.11+0.01 84.6 81.3----
2026-08-31 10:54 am- 0.0 2.9----30.11- 84.2 81.3----
2026-08-31 10:48 am NW 1.0 2.9----30.11- 84.2 81.1----
2026-08-31 10:42 amNNW 1.0 4.1----30.11- 84.2 81.1----
2026-08-31 10:36 amWNW 2.9 5.1----30.11- 83.5 81.1----
2026-08-31 10:30 am NW 1.9 5.1----30.11- 83.3 81.1----
2026-08-31 10:24 am NW 1.0 2.9----30.11- 83.3 81.1----
2026-08-31 10:18 am NW 1.9 4.1----30.11-- 81.1----
2026-08-31 10:12 am- 0.0 4.1----30.10-- 81.1----
2026-08-31 10:06 am W 1.9 6.0----30.10-- 81.0----
2026-08-31 10:00 am W 4.1 6.0----30.10+0.01 81.7 81.0----
2026-08-31 09:54 am W 1.0 5.1----30.10- 82.2 81.0----
2026-08-31 09:48 am W 4.1 8.0----30.10-- 81.0----
2026-08-31 09:42 amWNW 1.0 5.1----30.10-- 81.0----
2026-08-31 09:36 am W 4.1 6.0----30.10-- 80.8----
2026-08-31 09:30 am W 5.1 7.0----30.09- 81.7 80.8----
2026-08-31 09:24 am W 4.1 6.0----30.09- 82.0 80.8----
2026-08-31 09:18 am W 4.1 6.0----30.09-- 80.8----
2026-08-31 09:12 amWSW 1.9 4.1----30.09-- 80.8----
2026-08-31 09:06 am W 4.1 5.1----30.10-- 80.8----
2026-08-31 09:00 am W 5.1 6.0----30.10+0.02 82.2 80.8----
2026-08-31 08:54 am W 1.9 2.9----30.10- 82.2 80.8----
2026-08-31 08:48 am W 2.9 5.1----30.10-- 80.8----
2026-08-31 08:42 am W 1.9 4.1----30.10-- 80.8----
2026-08-31 08:36 am W 1.9 4.1----30.10-- 80.8----
2026-08-31 08:30 am W 2.9 5.1----30.10- 81.7 80.8----
2026-08-31 08:24 am SW 1.9 4.1----30.10- 83.1 81.0----
2026-08-31 08:18 am- 0.0 1.9----30.10-- 81.0----
2026-08-31 08:12 am SW 1.0 1.9----30.10-- 81.0----
2026-08-31 08:06 am- 0.0 0.0----30.10-- 81.0----
2026-08-31 08:00 am- 0.0 1.0----30.10+0.01 82.2 81.0----
2026-08-31 07:54 am- 0.0 1.0----30.10- 82.0 81.1----
2026-08-31 07:48 am- 0.0 1.0----30.10-- 81.1----
2026-08-31 07:42 amWSW 1.0 1.9----30.09-- 81.1----
2026-08-31 07:36 amWSW 1.0 1.9----30.10-- 81.1----
2026-08-31 07:30 am W 1.0 1.9----30.09- 77.5 81.1----
2026-08-31 07:24 am- 0.0 1.0----30.09- 77.0 81.3----
2026-08-31 07:18 am W 1.0 1.9----30.09-- 81.3----
2026-08-31 07:06 am W 1.0 1.9----30.09-- 81.3----
2026-08-31 07:00 am W 1.0 2.9----30.09+0.00 75.6 81.5----
2026-08-31 06:54 am W 1.9 2.9----30.09- 75.2 81.5----
2026-08-31 06:48 am W 1.9 2.9----30.09- 75.2 81.5----
2026-08-31 06:42 am W 1.9 4.1----30.08- 75.2 81.7----
2026-08-31 06:36 am W 1.9 4.1----30.08- 75.2 81.7----
2026-08-31 06:30 amWSW 1.9 2.9----30.08- 75.2 81.7----
2026-08-31 06:24 amWSW 2.9 5.1----30.08- 75.2 81.9----
2026-08-31 06:18 amWSW 2.9 4.1----30.08-- 81.9----
2026-08-31 06:12 amWSW 1.9 1.9----30.08-- 81.9----
2026-08-31 06:06 amWSW 1.9 2.9----30.08-- 81.9----
2026-08-31 06:00 amWSW 2.9 4.1----30.08-0.01 75.2 81.9----
2026-08-31 05:54 amWSW 2.9 4.1----30.08- 75.4 81.9----
2026-08-31 05:48 amWSW 1.9 4.1----30.08- 75.4 81.9----
2026-08-31 05:42 amWSW 2.9 5.1----30.08- 75.4 81.9----
2026-08-31 05:36 amWSW 2.9 4.1----30.08- 75.4 81.9----
2026-08-31 05:30 am W 2.9 4.1----30.09- 75.4 81.9----
2026-08-31 05:24 amWSW 2.9 4.1----30.08- 75.4 81.9----
2026-08-31 05:18 am W 1.9 2.9----30.08-- 81.9----
2026-08-31 05:12 am W 1.9 1.9----30.08-- 81.9----
2026-08-31 05:06 am W 1.9 1.9----30.09-- 81.9----
2026-08-31 05:00 am W 1.9 1.9----30.09+0.00 75.7 81.9----
2026-08-31 04:54 am W 1.9 1.9----30.08- 75.7 81.9----
2026-08-31 04:48 am W 1.0 2.9----30.08- 76.1 81.9----
2026-08-31 04:42 am W 1.0 1.9----30.08- 76.1 81.9----
2026-08-31 04:36 amWSW 1.9 2.9----30.08- 76.3 81.9----
2026-08-31 04:30 amWSW 1.9 4.1----30.08- 76.3 82.0----
2026-08-31 04:24 amWSW 1.9 2.9----30.08- 76.3 82.0----
2026-08-31 04:18 am W 2.9 4.1----30.08-- 82.0----
2026-08-31 04:12 amWSW 4.1 5.1----30.08-- 82.0----
2026-08-31 04:06 amWSW 2.9 5.1----30.08-- 82.0----
2026-08-31 04:00 amWSW 4.1 6.0----30.08-0.01 77.0 82.0----
2026-08-31 03:54 amWSW 5.1 6.0----30.08- 77.0 82.0----
2026-08-31 03:48 am SW 5.1 6.0----30.09- 77.0 81.9----
2026-08-31 03:42 amWSW 5.1 8.0----30.09- 77.0 81.9----
2026-08-31 03:36 amWSW 4.1 6.0----30.09- 77.0 81.9----
2026-08-31 03:30 amWSW 4.1 7.0----30.09- 77.0 81.9----
2026-08-31 03:24 amWSW 4.1 6.0----30.09- 77.0 81.9----
2026-08-31 03:18 am SW 5.1 7.0----30.09- 77.0 81.9----
2026-08-31 03:12 amWSW 4.1 7.0----30.09- 77.0 81.9----
2026-08-31 03:06 amWSW 5.1 7.0----30.09- 77.0 81.7----
2026-08-31 03:00 amWSW 4.1 6.0----30.09-0.01 77.0 81.7----
2026-08-31 02:54 amWSW 4.1 6.0----30.09- 77.0 81.7----
2026-08-31 02:48 amWSW 1.9 4.1----30.09- 76.8 81.7----
2026-08-31 02:42 amWSW 4.1 5.1----30.09- 76.8 81.7----
2026-08-31 02:36 am SW 4.1 5.1----30.09- 76.8 81.7----
2026-08-31 02:30 am SW 2.9 4.1----30.09-- 81.5----
2026-08-31 02:24 amWSW 1.9 5.1----30.09-- 81.5----
2026-08-31 02:18 am--------- 76.6-----
2026-08-31 02:12 am--------- 76.3-----
2026-08-31 02:06 am--------- 76.3-----
2026-08-31 02:00 am W 2.9 2.9----30.09-0.02 76.5 81.3----
2026-08-31 01:54 am W 1.9 4.1----30.09- 76.5 81.3----
2026-08-31 01:48 am W 1.9 2.9----30.09- 76.6 81.5----
2026-08-31 01:42 am W 2.9 4.1----30.09- 77.0 81.5----
2026-08-31 01:36 am W 1.9 2.9----30.09- 77.2 81.5----
2026-08-31 01:30 am W 2.9 5.1----30.09- 77.4 81.7----
2026-08-31 01:24 amWSW 4.1 6.0----30.09- 77.5 81.7----
2026-08-31 01:18 amWSW 4.1 6.0----30.09-- 81.7----
2026-08-31 01:12 am W 4.1 6.0----30.09-- 81.9----
2026-08-31 01:06 amWSW 4.1 6.0----30.09-- 81.9----
2026-08-31 01:00 amWSW 2.9 6.0----30.09-0.03 77.7 82.0----
2026-08-31 12:54 amWSW 4.1 7.0----30.09- 77.9 82.0----
2026-08-31 12:48 amWSW 4.1 7.0----30.10- 77.9 82.0----
2026-08-31 12:42 amWSW 5.1 7.0----30.10- 77.7 82.0----
2026-08-31 12:36 amWSW 2.9 5.1----30.10- 77.5 82.2----
2026-08-31 12:30 amWSW 2.9 5.1----30.10- 77.7 82.2----
2026-08-31 12:24 amWSW 2.9 4.1----30.10- 77.7 82.2----
2026-08-31 12:18 am W 2.9 4.1----30.10- 77.7 82.2----
2026-08-31 12:12 am W 4.1 5.1----30.10- 77.9 82.4----
2026-08-31 12:06 amWSW 4.1 6.0----30.10- 77.9 82.4----
2026-08-31 12:00 am W 2.9 7.0----30.11-0.03 78.3 82.4----
2026-08-30 11:54 pm SW 7.0 11.1----30.10- 79.3 82.4----
2026-08-30 11:48 pmSSW 8.0 9.9----30.10- 79.2 82.4----
2026-08-30 11:42 pm SW 6.0 7.0----30.10- 78.6 82.4----
2026-08-30 11:36 pmWSW 5.1 7.0----30.11- 78.3 82.6----
2026-08-30 11:30 pmWSW 4.1 6.0----30.11- 78.4 82.6----
2026-08-30 11:24 pmWSW 4.1 6.0----30.11- 78.4 82.6----
2026-08-30 11:18 pmWSW 4.1 7.0----30.11- 78.6 82.6----
2026-08-30 11:12 pm SW 6.0 8.0----30.11- 79.3 82.6----
2026-08-30 11:06 pm SW 6.0 8.9----30.11- 79.2 82.6----
2026-08-30 11:00 pm SW 7.0 8.9----30.11+0.00 79.2 82.6----
2026-08-30 10:54 pm SW 6.0 8.9----30.11- 79.3 82.6----
2026-08-30 10:48 pm SW 6.0 8.9----30.11- 79.3 82.6----
2026-08-30 10:42 pm SW 8.9 11.1----30.11- 79.3 82.8----
2026-08-30 10:36 pm SW 7.0 11.1----30.11- 79.3 82.8----
2026-08-30 10:30 pm SW 7.0 8.9----30.11- 79.2 82.8----
2026-08-30 10:24 pmSSW 8.0 9.9----30.12- 79.3 82.8----
2026-08-30 10:18 pmSSW 8.0 9.9----30.12-- 82.8----
2026-08-30 10:12 pmSSW 8.9 11.1----30.12-- 82.8----
2026-08-30 10:06 pmSSW 8.9 12.0----30.12-- 82.9----
2026-08-30 10:00 pmSSW 9.9 12.0----30.12+0.00 79.3 82.9----
2026-08-30 09:54 pmSSW 9.9 13.0----30.12- 79.3 82.9----
2026-08-30 09:48 pmSSW 9.9 12.0----30.13- 79.3 82.9----
2026-08-30 09:42 pmSSW 9.9 12.0----30.13- 79.3 82.9----
2026-08-30 09:36 pmSSW 8.9 12.0----30.13- 79.3 83.1----
2026-08-30 09:30 pmSSW 8.9 12.0----30.14- 79.5 83.1----
2026-08-30 09:24 pmSSW 9.9 12.0----30.14- 79.3 83.1----
2026-08-30 09:18 pmSSW 8.9 11.1----30.14- 79.3 83.1----
2026-08-30 09:12 pmSSW 8.9 11.1----30.14- 79.2 83.3----
2026-08-30 09:06 pmSSW 8.0 12.0----30.14- 79.3 83.3----
2026-08-30 09:00 pmSSW 9.9 12.0----30.13+0.01 79.2 83.3----
2026-08-30 08:54 pmSSW 9.9 12.0----30.13- 79.2 83.3----
2026-08-30 08:48 pmSSW 8.9 12.0----30.13-- 83.5----
2026-08-30 08:42 pmSSW 8.9 11.1----30.13-- 83.5----
2026-08-30 08:36 pmSSW 8.0 11.1----30.13-- 83.5----
2026-08-30 08:30 pmSSW 8.9 11.1----30.12- 79.2 83.7----
2026-08-30 08:24 pmSSW 8.9 13.0----30.12- 79.2 83.7----
2026-08-30 08:18 pmSSW 8.9 12.0----30.12-- 83.8----
2026-08-30 08:12 pmSSW 8.9 11.1----30.12-- 83.8----
2026-08-30 08:06 pmSSW 8.0 9.9----30.12-- 83.8----
2026-08-30 08:00 pmSSW 8.0 12.0----30.11+0.00 79.3 84.0----
2026-08-30 07:54 pmSSW 8.0 12.0----30.11- 79.3 84.0----
2026-08-30 07:48 pmSSW 8.9 12.0----30.11-- 84.0----
2026-08-30 07:42 pm S 9.9 13.0----30.12-- 84.2----
2026-08-30 07:36 pmSSW 12.0 15.0----30.11-- 84.2----
2026-08-30 07:30 pmSSW 9.9 13.0----30.11- 79.7 84.2----
2026-08-30 07:24 pmSSW 8.9 11.1----30.11- 79.5 84.2----
2026-08-30 07:00 pmSSW 7.0 8.9----30.12-0.01 80.2 84.6----
2026-08-30 06:54 pmSSW 6.0 8.9----30.12- 80.4 84.6----
2026-08-30 06:48 pmSSW 8.0 9.9----30.12- 80.4 84.6----
2026-08-30 06:42 pmSSW 8.0 9.9----30.13- 80.4 84.7----
2026-08-30 06:36 pmSSW 8.9 11.1----30.12- 80.4 84.7----
2026-08-30 06:30 pm S 8.0 9.9----30.13- 80.4 84.7----
2026-08-30 06:24 pmSSW 8.9 12.0----30.13- 80.6 84.7----
2026-08-30 06:18 pmSSW 8.9 12.0----30.13-- 84.9----
2026-08-30 06:12 pmSSW 9.9 11.1----30.12-- 84.9----
2026-08-30 06:06 pm S 8.0 12.0----30.12-- 84.9----
2026-08-30 06:00 pmSSW 8.0 13.0----30.12-0.03 80.8 84.9----
2026-08-30 05:54 pm S 9.9 12.0----30.12- 80.6 85.1----
2026-08-30 05:48 pmSSW 9.9 13.0----30.12- 80.6 85.1----
2026-08-30 05:42 pm S 9.9 13.0----30.12- 80.4 85.3----
2026-08-30 05:36 pm S 11.1 14.0----30.12- 80.2 85.3----
2026-08-30 05:30 pm S 8.9 12.0----30.12- 80.8 85.3----
2026-08-30 05:24 pmSSW 8.9 12.0----30.12- 80.6 85.3----
2026-08-30 05:18 pmSSW 11.1 13.0----30.12-- 85.3----
2026-08-30 05:12 pmSSW 9.9 12.0----30.12-- 85.3----
2026-08-30 05:06 pmSSW 8.9 11.1----30.12-- 85.5----
2026-08-30 05:00 pm S 8.9 11.1----30.11-0.05 80.6 85.5----
2026-08-30 04:54 pm S 7.0 12.0----30.12- 80.6 85.5----